| time (UTC) | temp F | wind direction | speed MPH | gust MPH | rain 1hr in | rain 24hr in | rain mn in | humidity % | barometer mb |
| 20260505003504 | 39 | 83 | 2.0 | 3.0 | 0.25 | 0.26 | 0.26 | 89 | 1004.4 |
| 20260505001504 | 40 | 58 | 3.0 | 5.0 | 0.20 | 0.21 | 0.21 | 87 | 1003.9 |
| 20260505001004 | 41 | 57 | 3.0 | 5.0 | 0.17 | 0.18 | 0.18 | 86 | 1003.9 |
| 20260505000504 | 41 | 19 | 2.0 | 3.0 | 0.15 | 0.16 | 0.16 | 84 | 1003.6 |
| 20260505000003 | 42 | 355 | 2.0 | 3.0 | 0.14 | 0.15 | 0.15 | 83 | 1003.6 |
| 20260504235504 | 42 | 28 | 4.0 | 6.0 | 0.14 | 0.15 | 0.15 | 81 | 1003.4 |
| 20260504235004 | 43 | 39 | 4.0 | 5.0 | 0.12 | 0.13 | 0.13 | 77 | 1003.5 |
| 20260504234504 | 44 | 271 | 3.0 | 14.0 | 0.08 | 0.09 | 0.09 | 74 | 1003.4 |
| 20260504234004 | 46 | 354 | 9.0 | 15.0 | 0.02 | 0.03 | 0.03 | 72 | 1003.3 |
| 20260504233003 | 47 | 24 | 13.0 | 17.0 | 0.00 | 0.01 | 0.01 | 63 | 1002.9 |
| 20260504232504 | 47 | 74 | 6.0 | 15.0 | 0.00 | 0.01 | 0.01 | 61 | 1002.7 |
| 20260504232004 | 48 | 88 | 7.0 | 13.0 | 0.00 | 0.01 | 0.01 | 61 | 1002.7 |
| 20260504231004 | 47 | 117 | 4.0 | 7.0 | 0.00 | 0.01 | 0.01 | 62 | 1002.4 |
| 20260504230003 | 47 | 141 | 8.0 | 12.0 | 0.00 | 0.01 | 0.01 | 63 | 1002.3 |
| 20260504225504 | 48 | 161 | 6.0 | 10.0 | 0.00 | 0.01 | 0.01 | 62 | 1002.3 |
| 20260504225004 | 48 | 144 | 6.0 | 12.0 | 0.00 | 0.01 | 0.01 | 60 | 1001.8 |
| 20260504224503 | 49 | 132 | 9.0 | 15.0 | 0.00 | 0.01 | 0.01 | 58 | 1001.6 |
| 20260504224004 | 50 | 136 | 11.0 | 15.0 | 0.00 | 0.01 | 0.01 | 54 | 1001.5 |
| 20260504223504 | 50 | 112 | 5.0 | 10.0 | 0.00 | 0.01 | 0.01 | 53 | 1001.5 |
| 20260504223004 | 50 | 129 | 7.0 | 12.0 | 0.00 | 0.01 | 0.01 | 53 | 1001.4 |
| 20260504222504 | 50 | 116 | 6.0 | 12.0 | 0.00 | 0.01 | 0.01 | 53 | 1001.3 |
| 20260504222004 | 50 | 103 | 6.0 | 14.0 | 0.00 | 0.01 | 0.01 | 55 | 1001.1 |
| 20260504221504 | 50 | 87 | 8.0 | 16.0 | 0.00 | 0.01 | 0.01 | 53 | 1001.0 |
| 20260504221004 | 51 | 40 | 10.0 | 17.0 | 0.00 | 0.01 | 0.01 | 53 | 1000.9 |
| 20260504220504 | 51 | 43 | 9.0 | 16.0 | 0.00 | 0.01 | 0.01 | 53 | 1000.9 |
| 20260504220004 | 52 | 44 | 10.0 | 17.0 | 0.00 | 0.01 | 0.01 | 51 | 1000.8 |
| 20260504215504 | 53 | 32 | 13.0 | 18.0 | 0.00 | 0.01 | 0.01 | 48 | 1000.9 |
| 20260504215004 | 54 | 25 | 10.0 | 21.0 | 0.01 | 0.01 | 0.01 | 47 | 1001.0 |
| 20260504214503 | 55 | 25 | 10.0 | 18.0 | 0.01 | 0.01 | 0.01 | 46 | 1001.0 |
| 20260504214004 | 55 | 0 | 12.0 | 20.0 | 0.01 | 0.01 | 0.01 | 43 | 1001.0 |
| 20260504213003 | 55 | 76 | 5.0 | 10.0 | 0.01 | 0.01 | 0.01 | 46 | 1001.1 |
| 20260504212503 | 55 | 61 | 4.0 | 12.0 | 0.01 | 0.01 | 0.01 | 48 | 1001.0 |
| 20260504212004 | 55 | 114 | 9.0 | 14.0 | 0.01 | 0.01 | 0.01 | 50 | 1000.9 |
| 20260504211504 | 54 | 89 | 5.0 | 12.0 | 0.01 | 0.01 | 0.01 | 52 | 1001.0 |
| 20260504211004 | 53 | 130 | 2.0 | 7.0 | 0.01 | 0.01 | 0.01 | 52 | 1001.4 |
| 20260504210504 | 52 | 140 | 6.0 | 10.0 | 0.01 | 0.01 | 0.01 | 55 | 1001.4 |
| 20260504210004 | 52 | 120 | 5.0 | 7.0 | 0.01 | 0.01 | 0.01 | 58 | 1001.4 |
| 20260504205004 | 51 | 175 | 1.0 | 3.0 | 0.00 | 0.00 | 0.00 | 55 | 1001.2 |
| 20260504204503 | 51 | 186 | 2.0 | 9.0 | 0.00 | 0.00 | 0.00 | 52 | 1001.5 |
| 20260504204004 | 51 | 162 | 3.0 | 5.0 | 0.00 | 0.00 | 0.00 | 56 | 1001.7 |
| 20260504203504 | 51 | 199 | 5.0 | 6.0 | 0.00 | 0.00 | 0.00 | 54 | 1001.7 |
| 20260504203003 | 51 | 186 | 0.0 | 3.0 | 0.00 | 0.00 | 0.00 | 54 | 1001.7 |
| 20260504202504 | 51 | 186 | 2.0 | 3.0 | 0.00 | 0.00 | 0.00 | 54 | 1001.7 |
| 20260504202004 | 51 | 172 | 4.0 | 5.0 | 0.00 | 0.00 | 0.00 | 54 | 1001.7 |
| 20260504201504 | 51 | 177 | 2.0 | 6.0 | 0.00 | 0.00 | 0.00 | 59 | 1001.5 |
| 20260504201004 | 51 | 211 | 7.0 | 10.0 | 0.00 | 0.00 | 0.00 | 62 | 1001.6 |
| 20260504200504 | 50 | 132 | 3.0 | 5.0 | 0.00 | 0.00 | 0.00 | 63 | 1001.7 |
| 20260504200004 | 49 | 65 | 2.0 | 5.0 | 0.00 | 0.00 | 0.00 | 60 | 1001.7 |
| 20260504195503 | 48 | 207 | 1.0 | 3.0 | 0.00 | 0.00 | 0.00 | 60 | 1001.7 |
| 20260504195003 | 48 | 205 | 5.0 | 7.0 | 0.00 | 0.00 | 0.00 | 61 | 1001.9 |
| 20260504194003 | 49 | 207 | 6.0 | 9.0 | 0.00 | 0.00 | 0.00 | 59 | 1002.2 |
| 20260504193504 | 49 | 200 | 4.0 | 9.0 | 0.00 | 0.00 | 0.00 | 61 | 1002.1 |
| 20260504193004 | 49 | 215 | 3.0 | 3.0 | 0.00 | 0.00 | 0.00 | 60 | 1002.0 |
| 20260504192504 | 49 | 121 | 2.0 | 3.0 | 0.00 | 0.00 | 0.00 | 62 | 1002.0 |
| 20260504192004 | 50 | 121 | 2.0 | 3.0 | 0.00 | 0.00 | 0.00 | 56 | 1002.2 |
| 20260504191504 | 50 | 97 | 2.0 | 3.0 | 0.00 | 0.00 | 0.00 | 52 | 1002.1 |
| 20260504191003 | 51 | 75 | 3.0 | 5.0 | 0.00 | 0.00 | 0.00 | 52 | 1002.1 |
| 20260504190504 | 51 | 58 | 2.0 | 7.0 | 0.00 | 0.00 | 0.00 | 52 | 1002.1 |
| 20260504190003 | 51 | 103 | 5.0 | 9.0 | 0.00 | 0.00 | 0.00 | 50 | 1002.0 |
| 20260504185504 | 52 | 31 | 4.0 | 6.0 | 0.00 | 0.00 | 0.00 | 49 | 1002.1 |
| 20260504185004 | 52 | 67 | 4.0 | 7.0 | 0.00 | 0.00 | 0.00 | 49 | 1001.6 |
| 20260504184504 | 52 | 40 | 5.0 | 9.0 | 0.00 | 0.00 | 0.00 | 53 | 1001.6 |
| 20260504184004 | 51 | 30 | 5.0 | 8.0 | 0.00 | 0.00 | 0.00 | 57 | 1001.7 |
| 20260504183504 | 51 | 26 | 3.0 | 5.0 | 0.00 | 0.00 | 0.00 | 54 | 1001.9 |
| 20260504183004 | 51 | 325 | 4.0 | 10.0 | 0.00 | 0.00 | 0.00 | 48 | 1002.0 |
| 20260504182504 | 51 | 0 | 7.0 | 16.0 | 0.00 | 0.00 | 0.00 | 47 | 1002.2 |
| 20260504182003 | 52 | 352 | 12.0 | 28.0 | 0.00 | 0.00 | 0.00 | 45 | 1002.2 |
| 20260504181503 | 54 | 273 | 9.0 | 25.0 | 0.00 | 0.00 | 0.00 | 42 | 1002.0 |
| 20260504181004 | 55 | 286 | 9.0 | 16.0 | 0.00 | 0.00 | 0.00 | 39 | 1002.0 |
| 20260504180003 | 56 | 321 | 3.0 | 7.0 | 0.00 | 0.00 | 0.00 | 37 | 1001.7 |
| 20260504175504 | 55 | 290 | 0.0 | 6.0 | 0.00 | 0.00 | 0.00 | 36 | 1001.7 |
| 20260504174504 | 55 | 226 | 8.0 | 12.0 | 0.00 | 0.00 | 0.00 | 38 | 1001.9 |
| 20260504174003 | 54 | 277 | 1.0 | 3.0 | 0.00 | 0.00 | 0.00 | 38 | 1001.8 |
| 20260504173504 | 54 | 277 | 3.0 | 12.0 | 0.00 | 0.00 | 0.00 | 38 | 1002.0 |
| 20260504173004 | 54 | 259 | 8.0 | 14.0 | 0.00 | 0.00 | 0.00 | 41 | 1002.1 |
| 20260504172504 | 54 | 246 | 9.0 | 14.0 | 0.00 | 0.00 | 0.00 | 39 | 1002.0 |
| 20260504172003 | 54 | 233 | 10.0 | 16.0 | 0.00 | 0.00 | 0.00 | 38 | 1002.0 |
| 20260504171504 | 54 | 237 | 11.0 | 20.0 | 0.00 | 0.00 | 0.00 | 38 | 1002.0 |
| 20260504171003 | 55 | 238 | 7.0 | 15.0 | 0.00 | 0.00 | 0.00 | 37 | 1002.0 |
| 20260504170504 | 55 | 240 | 8.0 | 14.0 | 0.00 | 0.00 | 0.00 | 38 | 1002.1 |
| 20260504150504 | 53 | 234 | 6.0 | 13.0 | 0.00 | 0.00 | 0.00 | 34 | 1002.3 |
| 20260504140504 | 40 | 256 | 2.0 | 3.0 | 0.00 | 0.00 | 0.00 | 57 | 1002.4 |
| 20260504130504 | 30 | 256 | 5.0 | 5.0 | 0.00 | 0.00 | 0.00 | 62 | 1002.6 |
| 20260504110504 | 28 | 256 | 0.0 | 1.0 | 0.00 | 0.00 | 0.00 | 66 | 1002.5 |
| 20260504100504 | 29 | 256 | 0.0 | 0.0 | 0.00 | 0.00 | 0.00 | 62 | 1002.6 |
| 20260504082004 | 31 | 256 | 0.0 | 0.0 | 0.00 | 0.00 | 0.00 | 60 | 1003.7 |
| 20260504081503 | 31 | 256 | 0.0 | 2.0 | 0.00 | 0.00 | 0.00 | 60 | 1003.7 |
| 20260504081004 | 30 | 256 | 1.0 | 3.0 | 0.00 | 0.00 | 0.00 | 60 | 1003.8 |
| 20260504080504 | 30 | 256 | 1.0 | 2.0 | 0.00 | 0.00 | 0.00 | 60 | 1003.9 |
| 20260504050503 | 37 | 256 | 0.0 | 0.0 | 0.00 | 0.00 | 0.00 | 54 | 1004.5 |
| 20260504050004 | 37 | 256 | 0.0 | 0.0 | 0.00 | 0.00 | 0.00 | 55 | 1004.6 |
| 20260504045004 | 38 | 256 | 0.0 | 0.0 | 0.00 | 0.00 | 0.00 | 53 | 1004.6 |
| 20260504044504 | 38 | 256 | 0.0 | 0.0 | 0.00 | 0.00 | 0.00 | 53 | 1004.6 |
| 20260504043503 | 38 | 256 | 1.0 | 3.0 | 0.00 | 0.00 | 0.00 | 52 | 1004.7 |
| 20260504043004 | 39 | 256 | 3.0 | 3.0 | 0.00 | 0.00 | 0.00 | 52 | 1004.7 |
| 20260504042504 | 39 | 256 | 0.0 | 3.0 | 0.00 | 0.00 | 0.00 | 52 | 1004.7 |
| 20260504041504 | 39 | 256 | 1.0 | 5.0 | 0.00 | 0.00 | 0.00 | 51 | 1004.8 |
| 20260504041004 | 39 | 256 | 2.0 | 3.0 | 0.00 | 0.00 | 0.00 | 50 | 1004.9 |
| 20260504040503 | 40 | 256 | 1.0 | 3.0 | 0.00 | 0.00 | 0.00 | 51 | 1004.9 |
| 20260504040003 | 40 | 256 | 1.0 | 3.0 | 0.00 | 0.00 | 0.00 | 50 | 1005.0 |
| 20260504035003 | 41 | 256 | 0.0 | 3.0 | 0.00 | 0.00 | 0.00 | 49 | 1004.8 |
| 20260504034504 | 41 | 256 | 2.0 | 3.0 | 0.00 | 0.00 | 0.00 | 49 | 1004.8 |
| 20260504033504 | 42 | 256 | 3.0 | 5.0 | 0.00 | 0.00 | 0.00 | 47 | 1004.8 |
| 20260504033003 | 43 | 256 | 0.0 | 3.0 | 0.00 | 0.00 | 0.00 | 47 | 1004.7 |
| 20260504032503 | 43 | 256 | 0.0 | 0.0 | 0.00 | 0.00 | 0.00 | 46 | 1004.6 |
| 20260504031504 | 44 | 256 | 0.0 | 0.0 | 0.00 | 0.00 | 0.00 | 45 | 1004.6 |
| 20260504031003 | 44 | 256 | 0.0 | 0.0 | 0.00 | 0.00 | 0.00 | 45 | 1004.5 |
| 20260504030503 | 44 | 256 | 0.0 | 3.0 | 0.00 | 0.00 | 0.00 | 44 | 1004.5 |
| 20260504030004 | 45 | 256 | 2.0 | 3.0 | 0.00 | 0.00 | 0.00 | 43 | 1004.5 |
| 20260504025503 | 45 | 256 | 2.0 | 5.0 | 0.00 | 0.00 | 0.00 | 44 | 1004.4 |
| 20260504025005 | 46 | 256 | 0.0 | 0.0 | 0.00 | 0.00 | 0.00 | 43 | 1004.4 |
| 20260504024503 | 46 | 256 | 2.0 | 3.0 | 0.00 | 0.00 | 0.00 | 42 | 1004.3 |
| 20260504024003 | 47 | 256 | 1.0 | 3.0 | 0.00 | 0.00 | 0.00 | 41 | 1004.3 |
| 20260504023503 | 47 | 256 | 3.0 | 3.0 | 0.00 | 0.00 | 0.00 | 41 | 1004.2 |
| 20260504023004 | 48 | 256 | 2.0 | 3.0 | 0.00 | 0.00 | 0.00 | 39 | 1004.2 |
| 20260504022504 | 49 | 256 | 0.0 | 0.0 | 0.00 | 0.00 | 0.00 | 39 | 1004.1 |
| 20260504022003 | 49 | 256 | 0.0 | 2.0 | 0.00 | 0.00 | 0.00 | 38 | 1004.1 |
| 20260504021004 | 51 | 256 | 0.0 | 2.0 | 0.00 | 0.00 | 0.00 | 37 | 1004.0 |
| 20260504020004 | 52 | 256 | 0.0 | 0.0 | 0.00 | 0.00 | 0.00 | 34 | 1003.9 |
| 20260504015504 | 52 | 256 | 0.0 | 0.0 | 0.00 | 0.00 | 0.00 | 33 | 1003.8 |
| 20260504015004 | 53 | 256 | 0.0 | 0.0 | 0.00 | 0.00 | 0.00 | 32 | 1003.7 |
| 20260504014504 | 53 | 256 | 0.0 | 0.0 | 0.00 | 0.00 | 0.00 | 33 | 1003.3 |
| 20260504014004 | 54 | 256 | 0.0 | 0.0 | 0.00 | 0.00 | 0.00 | 31 | 1003.3 |
| 20260504013504 | 54 | 256 | 0.0 | 0.0 | 0.00 | 0.00 | 0.00 | 31 | 1003.2 |
| 20260504013004 | 54 | 256 | 0.0 | 0.0 | 0.00 | 0.00 | 0.00 | 31 | 1003.3 |
| 20260504012504 | 54 | 256 | 0.0 | 0.0 | 0.00 | 0.00 | 0.00 | 31 | 1003.3 |
| 20260504012004 | 55 | 256 | 0.0 | 3.0 | 0.00 | 0.00 | 0.00 | 31 | 1003.3 |
| 20260504011503 | 55 | 256 | 3.0 | 5.0 | 0.00 | 0.00 | 0.00 | 31 | 1003.4 |
| 20260504011003 | 55 | 256 | 3.0 | 5.0 | 0.00 | 0.00 | 0.00 | 31 | 1003.4 |
| 20260504010504 | 55 | 246 | 3.0 | 7.0 | 0.00 | 0.00 | 0.00 | 30 | 1003.4 |
| 20260504010004 | 55 | 237 | 5.0 | 9.0 | 0.00 | 0.00 | 0.00 | 30 | 1003.3 |
| 20260504005504 | 55 | 235 | 2.0 | 6.0 | 0.00 | 0.00 | 0.00 | 30 | 1003.4 |
| 20260504005004 | 55 | 255 | 7.0 | 15.0 | 0.00 | 0.00 | 0.00 | 30 | 1003.6 |
| 20260504004503 | 56 | 246 | 9.0 | 14.0 | 0.00 | 0.00 | 0.00 | 30 | 1003.5 |
| 20260504004004 | 56 | 263 | 4.0 | 16.0 | 0.00 | 0.00 | 0.00 | 30 | 1003.5 |